Location: Chakepay
(13.3931°S, 72.1925°W)
Time: 02:10:30
(UTC+00:00)

Genesis I - Pass Details

Date: 15 November 2019
Orbit: 491 x 532 km, 64.5° (Epoch: 13 December)

Event Time Altitude Azimuth Distance (km) Brightness Sun altitude
Exits shadow 08:29:26 63° 89° (E) 551 3.4 -23.7°
Drops below altitude 10° 08:32:58 10° 150° (SSE) 1,690 6.6 -22.9°
Sets 08:35:08 0° 152° (SSE) 2,577 7.6 -22.4°
